Погода в Макарятах

Россия / Костромская область     59°09′08″N   46°38′24″E
В апреле 2022 года жителям России запретили посещать сайт meteo.paraplan.net по решению Генеральной прокуратуры. Аудитория сайта уменьшилась в 10 раз. Владельцы сайта не видят смысла в поддержке погодного сервера в таких условиях. Сайт будет закрыт в октябре.
темп.,
°C
ветер,
м/с
пор.,
м/с
влажн.,
%
обл.,
%
осадки,
мм/ч
давл.,
гПа
погр.,
м
3 октября, пн
пн300:00+9ююз279265 0.0 1008335
03:00+7ююз239732 0.0 101064
06:00+7юв1195100 0.0 101113
09:00+10в2484100 0.0 1011189
12:00+12вюв2795100 0.1 1011380
15:00+14вюв3894100 0.3 1011468
18:00+13ююв41290100 0.0 1012507
21:00+12ююв4148370 0.0 1013617
4 октября, вт
вт400:00+11ююв41479100 0.0 1014717
03:00+10ююв41382100 0.0 1016532
06:00+10ююв4108598 0.0 1017504
09:00+12ю498414 0.0 1019727
12:00+14ю476443 0.0 10191176
15:00+14ююв4768100 0.0 10201095
18:00+11ююв4988100 0.0 1020468
21:00+9юв31086100 0.0 1020356
5 октября, ср
ср500:00+9юв31093100 0.0 1020363
03:00+8юв41078100 0.0 1019400
06:00+8юв41095100 0.0 1019476
09:00+10ююв4985100 0.0 1018668
12:00+12ююв577599 0.0 1017890
15:00+9юв41081100 0.0 1016623
18:00+9юв41095100 3.4 1015675
21:00+8юв4992100 5.3 1014673
6 октября, чт
чт600:00+7юв4993100 0.5 1013544
03:00+7юв2697100 2.3 1012374
06:00+7вюв2598100 1.3 1011341
09:00+7вюв1397100 3.0 1010256
12:00+8вюв1195100 0.4 1010180
15:00+8всв0096100 0.5 101184
18:00+7зюз1197100 0.2 101121
21:00+7юз2596100 0.2 1010215
7 октября, пт
пт700:00+5юз27965 0.0 1009204
03:00+5ююз31093100 0.0 1007391
06:00+5ююз41096100 3.6 1006572
09:00+7з4991100 4.1 1006862
12:00+10зюз598168 0.1 1006993
15:00+10з5117590 0.5 10061374
18:00+8зюз51286100 1.2 10061129
21:00+8зсз41088100 2.5 10071199